SCP
0 0 0 0 0 0 0 0 0 0 0 0 0 0 0 0 0 0 0 0 0 0 0 0 0 0 0 0 0 0 0 0 0 0 0 0 0 0 0 0 0 0 0 0 0 0 0 0 0
0 0 0 0 0 0 0 0 0 0 0 0 0 0 0 0 0 0 0 0 0 0 0 0 0 0 0 0 0 0 0 0 0 0 0 0 0 0 0 0 0 0 0 0 0 0 0 0 0
0 0 0 0 0 0 0 0 0 0 0 0 0 0 0 0 0 0 0 0 0 0 0 0 0 1 0 0 0 0 0 0 0 0 0 0 0 0 0 0 0 0 0 0 0 0 0 0 0
0 0 0 0 0 0 0 0 0 0 0 0 0 0 0 0 0 0 0 0 0 0 0 0 1 1 1 0 0 0 0 0 0 0 0 0 0 0 0 0 0 0 0 0 0 0 0 0 0
0 0 0 0 0 0 0 0 0 0 0 0 0 0 0 0 0 0 0 0 0 0 0 0 1 1 1 1 0 0 0 0 0 0 0 0 0 0 0 0 0 0 0 0 0 0 0 0 0
0 0 0 0 0 0 0 0 0 0 0 0 0 0 0 0 0 0 0 0 0 0 0 0 1 1 1 1 0 0 0 0 0 0 0 0 0 0 0 0 0 0 0 0 0 0 0 0 0
0 0 0 0 0 0 0 0 0 0 0 0 0 0 0 0 0 0 0 0 0 0 0 0 0 0 1 1 0 0 0 0 0 0 0 0 0 0 0 0 0 0 0 0 0 0 0 0 0
0 0 0 0 0 0 0 0 0 0 0 0 0 0 0 0 0 0 0 0 0 0 0 0 0 0 0 0 0 0 0 0 0 0 0 0 0 0 0 0 0 0 0 0 0 0 0 0 0
0 0 0 0 0 0 0 0 0 0 0 0 0 0 0 0 0 0 0 0 0 0 0 0 0 0 0 0 0 0 0 0 0 0 0 0 0 0 0 0 0 0 0 0 0 0 0 0 0
0 0 0 0 0 0 0 0 0 0 0 0 0 0 0 0 0 0 0 0 0 0 0 0 0 0 0 0 0 0 0 0 0 0 0 0 0 0 0 0 0 0 0 0 0 0 0 0 0
0 0 0 0 0 0 0 0 0 0 0 0 0 0 0 0 0 0 0 0 0 0 0 0 0 0 0 0 0 0 0 0 0 0 0 0 0 0 0 0 0 0 0 0 0 0 0 0 0
0 0 0 0 0 0 0 0 0 0 0 0 0 0 0 0 0 0 0 0 0 0 0 0 0 0 0 0 0 0 0 0 0 0 0 0 0 0 0 0 0 0 0 0 0 0 0 0 0
0 0 0 0 0 0 0 0 0 0 0 0 0 0 0 0 0 0 0 0 0 0 0 0 0 0 0 0 0 0 0 0 0 0 0 0 0 0 0 0 0 0 0 0 0 0 0 0 0
0 0 0 0 0 0 0 0 0 0 0 0 0 0 0 0 0 0 0 0 0 0 0 0 0 0 0 0 0 0 0 0 0 0 0 0 0 0 0 0 0 0 0 0 0 0 0 0 0
0 0 0 0 0 0 0 0 0 0 0 0 0 0 0 0 0 0 0 0 0 0 0 0 0 0 0 0 0 0 0 0 0 0 0 0 0 0 0 0 0 0 0 0 0 0 0 0 0
0 0 0 0 0 0 0 0 0 0 0 0 0 0 0 0 0 0 0 0 0 0 0 0 0 0 0 0 0 0 0 0 0 0 0 0 0 0 0 0 0 0 0 0 0 0 0 0 0
0 0 0 0 0 0 0 0 0 0 0 0 0 0 0 0 0 0 0 0 0 0 0 0 0 0 0 0 0 0 0 0 0 0 0 0 0 0 0 0 0 0 0 0 0 0 0 0 0
0 0 0 0 0 0 0 0 0 0 0 0 0 0 0 0 0 0 0 0 0 0 0 0 0 0 0 0 0 0 0 0 0 0 0 0 0 0 0 0 0 0 0 0 0 0 0 0 0
0 0 0 0 0 0 0 0 0 0 0 0 0 0 0 0 0 0 0 0 0 0 0 0 0 0 0 0 0 0 0 0 0 0 0 0 0 0 0 0 0 0 0 0 0 0 0 0 0
0 0 0 0 0 0 0 0 0 0 0 0 0 0 0 0 0 0 0 0 0 0 0 0 0 0 0 0 0 0 0 0 0 0 0 0 0 0 0 0 0 0 0 0 0 0 0 0 0
0 0 0 0 0 0 0 0 0 0 0 0 0 0 0 0 0 0 0 0 0 0 0 0 0 0 0 0 0 0 0 0 0 0 0 0 0 0 0 0 0 0 0 0 0 0 0 0 0
0 0 0 0 0 0 0 0 0 0 0 0 0 0 0 0 0 0 0 0 0 0 0 0 0 0 0 0 0 0 0 0 0 0 0 0 0 0 0 0 0 0 0 0 0 0 0 0 0
0 0 0 0 0 0 0 0 0 0 0 0 0 0 0 0 0 0 0 0 0 0 0 0 0 0 0 0 0 0 0 0 0 0 0 0 0 0 0 0 0 0 0 0 0 0 0 0 0
0 0 0 0 0 0 0 0 0 0 0 0 0 0 0 0 0 0 0 0 0 0 0 0 0 0 0 0 0 0 0 0 0 0 0 0 0 0 0 0 0 0 0 0 0 0 0 0 0
0 0 0 0 0 0 0 0 0 0 0 0 0 0 0 0 0 0 0 0 0 0 0 0 0 0 0 0 0 0 0 0 0 0 0 0 0 0 0 0 0 0 0 0 0 0 0 0 0
0 0 0 0 0 0 0 0 0 0 0 0 0 0 0 0 0 0 0 0 0 0 0 0 0 0 0 0 0 0 0 0 0 0 0 0 0 0 0 0 0 0 0 0 0 0 0 0 0
0 0 0 0 0 0 0 0 0 0 0 0 0 0 0 0 0 0 0 0 0 0 0 0 0 0 0 0 0 0 0 0 0 0 0 0 0 0 0 0 0 0 0 0 0 0 0 0 0
0 0 0 0 0 0 0 0 0 0 0 0 0 0 0 0 0 0 0 0 0 0 0 0 0 0 0 0 0 0 0 0 0 0 0 0 -0 -0 0 0 0 0 0 0 0 0 0 0 0
0 0 0 0 0 0 0 0 0 0 0 0 0 0 0 0 0 0 0 0 0 0 0 0 0 0 0 0 0 0 0 0 0 0 0 0 0 -0 0 0 0 0 0 0 0 0 0 0 0
0 0 0 0 0 0 0 0 0 0 0 0 0 0 0 0 0 0 0 0 0 0 0 0 0 0 0 0 0 0 0 0 0 0 0 0 0 0 0 0 0 0 0 0 0 0 0 0 0
Wind_Speed
7 3 2 4 7 5 1 3 1 0 0 0 1 3 4 3 3 2 1 2 2 2 2 3 3 4 5 5 5 6 8 9 9 9 10 10 10 11 11 11 10 10 10 10 11 11 11 12 12
2 2 5 6 6 1 4 3 2 2 1 2 3 2 3 0 1 1 1 1 2 2 1 2 3 4 5 6 5 6 7 8 9 9 9 9 10 10 11 10 10 9 9 10 10 11 11 11 11
1 4 5 5 4 5 4 2 3 1 1 1 2 2 1 0 1 0 1 0 2 2 1 2 4 5 5 5 5 5 6 8 9 9 9 9 9 9 10 10 10 10 9 10 10 10 10 10 10
3 5 6 4 2 3 3 1 1 1 2 2 2 1 1 1 1 1 1 1 2 2 1 2 4 5 5 5 5 5 6 8 8 9 9 9 9 9 9 9 9 9 9 9 9 9 9 9 9
4 5 4 1 3 2 2 1 0 1 0 1 2 2 0 2 2 2 2 2 2 2 1 2 3 4 4 4 5 4 5 7 8 8 8 8 8 9 9 9 9 9 9 9 9 9 8 8 9
5 5 3 3 4 2 2 1 1 1 0 0 2 2 1 2 2 2 2 2 2 2 2 2 3 3 4 4 4 4 5 6 7 8 8 8 8 8 8 8 8 8 8 8 8 8 8 8 8
5 4 4 4 2 2 2 1 2 2 1 2 2 3 1 1 1 2 2 2 2 2 2 2 2 2 3 3 3 4 4 5 6 7 7 7 8 8 8 8 8 8 8 8 8 8 8 8 8
4 5 3 3 4 4 1 1 0 2 2 0 2 3 3 2 1 2 3 3 3 3 2 2 2 2 1 1 3 3 3 5 5 6 6 7 7 7 7 7 7 8 8 8 8 8 8 7 7
4 4 4 5 5 3 1 1 1 1 2 1 1 1 1 2 3 4 3 3 3 3 2 2 2 2 1 1 2 3 3 4 4 4 6 6 3 4 4 5 7 7 7 8 8 8 8 7 6
4 4 5 3 3 2 1 1 1 1 1 1 1 2 2 3 4 3 2 1 1 1 2 2 1 1 1 1 2 1 2 2 3 2 3 3 3 3 4 5 6 7 7 7 8 8 7 5 3
2 4 2 1 1 1 1 1 1 2 1 3 3 2 2 3 2 2 1 1 0 1 2 2 1 1 1 1 1 1 1 1 2 2 3 3 3 3 3 2 3 3 5 3 4 4 3 2 2
2 1 1 1 1 1 1 0 1 1 3 2 2 3 4 4 3 2 2 1 0 1 2 2 1 1 1 1 1 1 1 1 2 2 3 3 2 2 2 2 2 2 2 2 2 2 2 2 2
1 1 0 0 1 1 1 0 1 2 3 1 2 3 3 3 2 1 0 1 1 1 2 2 1 0 1 1 1 2 2 2 2 2 2 3 3 3 2 2 2 2 2 2 2 2 2 2 2
1 0 1 1 1 0 1 2 1 3 1 2 3 3 2 2 1 0 1 1 1 1 1 1 1 0 1 2 1 2 1 1 2 2 2 3 3 3 3 2 2 2 2 1 1 2 2 1 1
1 1 2 2 1 1 1 3 2 3 1 2 2 2 1 0 0 0 1 1 1 1 2 1 0 1 1 2 2 2 2 2 1 1 2 2 2 3 3 3 2 1 2 2 2 2 1 1 1
2 2 1 2 0 1 2 5 3 1 1 1 1 1 0 0 1 1 2 2 2 1 1 1 1 1 1 2 2 2 2 2 1 1 2 2 3 3 3 3 2 2 2 2 2 2 1 1 1
2 1 2 3 1 1 2 5 4 1 1 1 2 2 1 1 2 2 2 2 2 1 1 1 1 1 1 2 2 2 2 2 1 1 1 2 2 3 3 2 2 2 2 2 2 1 1 1 0
3 3 3 4 2 0 2 5 5 2 1 2 2 2 1 1 3 2 1 2 2 2 2 1 1 1 2 2 2 2 2 2 1 1 1 2 2 3 3 2 2 3 2 2 2 2 1 1 0
3 3 3 3 1 1 4 6 7 4 2 3 3 2 2 3 3 1 1 1 2 3 3 2 2 1 2 1 1 1 1 1 1 1 2 2 2 2 3 2 2 2 3 2 2 1 2 1 1
2 2 2 3 1 1 4 7 6 4 4 4 4 4 4 2 2 2 2 2 2 1 2 1 1 2 1 1 1 1 1 1 1 1 2 2 2 1 2 3 2 2 2 2 2 2 2 1 1
3 4 4 3 2 2 3 6 3 2 1 1 1 2 2 3 3 2 1 1 1 1 1 1 1 1 1 1 2 2 2 2 1 1 1 2 2 1 2 2 2 2 2 2 2 3 3 2 1
4 3 3 2 0 3 1 5 6 2 2 2 2 2 2 3 2 2 1 1 1 2 1 1 1 1 1 2 2 2 2 1 0 0 1 1 1 2 1 2 2 2 1 1 2 2 1 3 2
3 2 2 1 1 2 1 3 8 1 3 4 3 3 3 2 2 2 2 2 1 1 0 1 2 2 2 2 2 2 2 1 1 1 2 1 1 1 1 1 2 1 1 1 1 1 2 2 2
3 4 3 3 2 3 4 5 8 4 5 4 3 3 3 2 1 1 1 1 1 1 1 1 2 2 2 2 2 2 2 1 2 2 1 1 0 0 1 1 1 1 1 1 2 2 2 2 2
3 4 2 3 2 6 2 4 9 5 4 4 4 3 3 1 1 1 1 0 0 1 1 1 2 2 2 2 2 1 0 1 1 1 1 0 0 0 1 0 1 1 1 1 1 2 2 2 2
3 4 6 5 5 4 2 6 7 3 2 1 2 2 1 1 1 1 1 1 0 0 1 1 1 1 2 2 1 1 1 1 1 0 1 1 0 1 1 1 1 1 1 1 1 1 1 1 2
4 2 3 4 1 2 5 6 8 1 1 1 0 0 0 1 2 1 1 1 0 0 0 1 1 1 1 1 1 2 2 1 1 1 0 0 0 1 1 0 0 1 1 1 1 1 1 1 1
2 5 4 4 3 4 5 5 5 4 4 2 1 1 1 2 2 2 1 1 1 1 0 1 1 1 1 1 1 1 1 1 1 1 1 1 1 0 1 1 1 1 1 1 1 1 1 1 1
3 2 3 3 3 4 4 7 4 5 4 4 3 2 2 2 2 2 2 1 1 1 1 1 1 1 1 1 1 1 1 1 1 1 1 1 1 0 0 1 1 1 2 1 1 2 2 2 2
2 4 6 4 4 3 3 8 2 3 3 3 2 1 1 1 1 2 1 1 1 1 0 0 0 0 0 0 1 1 1 1 1 1 1 1 1 1 1 1 1 2 2 2 2 3 3 3 3
Wind_Direction
345 -0 53 55 57 55 222 248 232 266 213 35 74 112 134 148 161 195 353 66 65 114 154 150 128 128 122 111 105 113 123 120 115 113 113 117 116 115 111 111 109 106 103 103 102 100 96 94 92
348 19 53 59 90 122 259 248 223 229 165 101 46 65 89 106 347 32 8 351 78 108 107 125 120 121 126 118 110 112 125 126 121 117 114 114 116 114 111 111 110 108 106 106 104 102 99 97 95
25 51 77 77 121 181 216 227 216 331 56 87 70 40 99 228 323 255 312 340 83 97 94 109 108 113 122 124 115 116 126 132 127 124 120 115 114 116 114 112 110 108 108 107 105 103 101 99 98
68 50 57 81 198 220 214 235 186 104 41 45 98 53 336 331 293 288 338 99 99 84 84 117 111 114 114 124 120 119 130 135 132 128 125 121 115 119 118 115 111 109 107 106 105 104 103 101 99
62 77 74 71 241 250 247 275 209 130 94 25 101 122 278 340 11 50 85 92 108 94 80 110 111 113 116 122 126 121 131 134 135 133 130 127 120 116 117 115 114 113 112 109 107 104 103 103 102
64 75 109 207 237 266 277 270 152 149 166 72 119 134 228 349 35 42 62 72 93 101 75 92 117 109 112 113 118 122 128 129 134 134 130 126 121 118 118 118 117 116 113 110 109 105 106 104 102
109 113 166 191 217 254 252 190 164 171 170 212 166 141 253 317 353 42 50 68 67 72 73 59 85 100 109 108 104 117 121 127 131 134 127 124 119 117 115 113 115 113 110 109 109 106 106 105 102
120 114 151 192 199 232 238 136 127 161 190 89 126 159 225 257 35 64 64 67 60 50 48 48 56 71 83 108 102 101 115 124 124 129 121 117 112 112 110 108 111 109 107 106 108 106 105 103 99
91 96 191 201 192 217 172 109 11 28 100 46 359 256 285 118 102 84 69 54 47 35 22 27 40 52 58 83 99 93 103 110 110 122 119 114 104 105 107 102 106 107 104 102 102 101 97 94 93
93 165 210 202 189 176 123 123 159 71 44 9 346 4 70 113 125 124 116 110 73 353 346 8 34 49 53 80 89 89 88 95 96 108 118 106 101 98 98 98 102 103 100 98 98 96 90 79 75
127 186 194 200 161 115 83 50 59 135 240 228 220 206 135 130 142 151 156 166 222 322 337 338 5 37 81 95 98 89 90 98 98 101 113 112 103 98 91 99 92 89 86 83 85 81 75 73 72
126 249 182 199 115 82 122 71 30 204 241 276 210 168 152 155 173 183 195 198 39 18 335 336 3 40 85 99 110 110 113 113 106 124 116 124 117 108 105 98 92 83 79 81 77 84 82 78 75
174 255 341 209 57 65 59 282 239 274 285 353 100 118 143 160 184 223 190 54 54 16 328 330 342 122 111 107 114 116 121 112 110 118 118 126 130 129 124 113 103 96 95 99 94 91 94 92 80
177 164 302 330 313 300 162 273 212 268 304 87 110 131 154 166 180 31 24 15 350 317 310 317 298 161 120 130 134 126 113 100 109 118 120 121 133 137 136 130 119 112 113 112 120 117 111 109 99
93 46 341 315 239 228 133 304 235 252 190 119 138 150 145 147 60 284 291 297 290 314 325 313 242 126 121 131 125 112 103 100 117 131 126 121 124 144 146 138 129 127 117 111 112 98 99 98 88
57 60 300 300 199 217 152 256 264 275 138 172 209 201 183 7 1 346 351 347 344 345 338 330 28 89 116 119 114 108 106 103 107 128 130 128 127 129 143 138 140 133 120 116 119 108 102 91 88
35 198 239 286 296 151 170 248 276 300 146 220 244 240 238 309 336 339 351 354 357 352 356 3 38 97 106 102 90 102 118 113 104 101 123 135 130 127 127 143 139 136 125 117 122 95 109 123 97
209 207 232 243 292 105 228 258 280 283 204 232 246 254 255 272 282 306 339 348 359 14 32 43 54 74 90 95 95 81 81 93 92 104 98 116 132 131 123 119 138 137 127 116 118 119 83 111 162
169 183 234 255 292 283 248 261 272 276 256 249 243 238 249 264 293 332 1 8 18 25 35 39 46 44 75 80 92 92 85 67 77 109 93 94 110 125 123 118 130 144 149 154 140 129 106 64 48
179 214 251 289 326 249 277 274 267 249 236 230 224 225 231 256 320 346 359 14 12 11 21 34 41 48 41 58 108 114 125 114 73 66 90 92 92 121 131 127 134 139 148 143 140 129 127 106 84
223 209 218 243 332 3 321 299 273 271 246 262 248 233 234 229 245 286 331 342 356 346 339 8 14 54 50 54 74 81 79 66 46 21 58 74 102 110 121 133 140 137 143 158 169 168 158 165 194
234 216 200 212 77 293 34 290 283 275 304 288 273 279 279 264 250 252 257 298 282 270 294 27 33 48 54 68 80 92 109 119 171 85 47 51 82 92 95 121 138 147 149 150 177 170 170 162 179
202 152 151 186 172 292 228 234 282 319 274 264 263 274 293 281 244 243 238 232 235 242 66 54 52 47 45 62 80 90 86 108 83 62 65 41 49 69 80 125 127 140 156 165 174 172 164 168 174
147 87 67 57 84 265 225 198 274 237 232 253 256 268 286 299 279 249 249 198 146 93 75 65 68 50 44 54 60 77 95 91 94 78 71 28 355 69 50 87 130 145 159 188 197 190 177 181 173
118 107 44 355 342 251 211 209 253 250 237 227 236 255 279 280 297 322 329 16 54 76 85 79 80 55 41 52 53 48 60 119 125 139 157 127 346 307 247 196 188 181 186 187 193 190 192 190 182
183 153 163 197 228 277 271 236 255 272 285 254 220 225 262 308 331 338 322 261 222 92 95 103 98 68 52 51 26 23 25 65 50 59 157 181 238 276 253 217 210 218 205 178 172 192 209 206 202
147 176 157 132 138 277 267 280 300 280 332 338 222 111 318 309 317 309 334 330 294 264 172 174 158 84 60 45 23 19 20 39 40 16 10 262 306 305 323 260 245 253 231 207 183 202 211 210 224
143 144 120 140 176 249 280 267 254 253 244 255 272 279 302 328 330 333 330 332 340 313 348 34 74 73 40 42 29 23 8 8 13 41 3 344 318 317 331 329 281 264 242 219 198 217 225 208 232
141 144 145 147 173 182 255 265 230 217 215 216 237 252 276 301 306 306 315 330 352 14 50 60 45 48 39 27 19 17 357 7 20 11 331 306 284 279 261 273 261 253 247 226 216 235 220 219 233
182 182 163 173 218 196 210 266 280 212 208 201 228 261 287 290 295 297 305 328 353 346 341 124 127 39 335 355 11 2 356 3 356 333 325 323 287 272 264 266 264 260 256 239 224 235 231 230 232